Other Public Products
Issued by NWS Charleston, SC

Current Version | Previous Version | Text Only | Print | Product List | Glossary Off
Versions: 1 2 3 4 5 6 7 8 9 10 11 12 13 14 15 16 17 18 19 20 21 22 23 24 25 26 27 28 29 30 31 32 33 34 35 36 37 38 39 40 41 42 43 44 45 46 47 48 49 50

000
FPUS82 KCHS 251912
OPUCHS

TEST...KCHS/KSAV Gateway Observations...TEST
National Weather Service Charleston SC
300 PM EDT TUE APR 25 2017

NOTE: "fair" indicates few or no clouds below 12,000 feet with no
significant weather and/or obstructions to visibility.

SCZ050-WAZ558-NCZ071-TXZ119-213-PAZ071-DCZ001-FLZ074-172-MI076-
NYZ176-178-MAZ016-IL014-TNZ027-NJZ106-GAZ044-MD014-252000-

...Gateway Observations for Charleston International...

CITY           SKY/WX    TMP DP  RH WIND       PRES   REMARKS
Chas Airport   PTSUNNY   73  58  59 NW12      29.70S
Seattle        CLOUDY    52  40  63 SW13      29.96S
Charlotte      CLOUDY    64  57  78 NW3       29.71S
Dallas DFW     PTSUNNY   80  65  59 S22G31    29.48F
Dallas Love    PTSUNNY   82  64  54 S22G36    29.50F
Philladelphia  LGT RAIN  57  54  89 NE18G29   29.87F FOG
Wash National  LGT RAIN  60  58  92 NE21      29.76F FOG
Baltimore      LGT RAIN  58  58 100 NE17G25   29.78F FOG
Miami          MOSUNNY   85  56  37 W12       29.85F
Detroit        MOSUNNY   68  53  58 E10       29.80F
Newark         LGT RAIN  55  52  89 NE20      29.99F
Laguardia      CLOUDY    54  51  90 NE22      30.00F
J F K          LGT RAIN  57  54  89 NE21      29.99F
Boston Logan   RAIN      46  45  96 NE18G26   30.24  FOG
Ft. Lauderdale MOSUNNY   82  57  42 NW10      29.84F
Chicago O`Hare CLOUDY    75  48  38 S16       29.63F
Chicago Midway PTSUNNY   77  48  35 S16G23    29.65S
Houston Bush   PTSUNNY   83  67  58 S10G20    29.66F
Houston Hobby  PTSUNNY   81  68  64 S14G24    29.66F
Nashville      PTSUNNY   74  56  53 E3        29.76F
Atlanta        MOSUNNY   75  57  53 N12G18    29.76F

$$

GAZ044-118-TXZ119-213-NCZ071-DCZ001-MDZ014-506-PAZ021-071-NJZ106-
NYZ176-178-MAZ106-OHZ011-021-055-MIZ076-KYZ091-ILZ014-INZ047-
MNZ060-ONZ431-252000-

...Gateway Observations for Savannah International...

CITY           SKY/WX    TMP DP  RH WIND       PRES   REMARKS
Savannah Arpt  PTSUNNY   81  56  42 W14       29.72F
Atlanta        MOSUNNY   75  57  53 N12G18    29.76F
Charlotte      CLOUDY    64  57  78 NW3       29.71S
Dallas DFW     PTSUNNY   80  65  59 S22G31    29.48F
Houston Bush   PTSUNNY   83  67  58 S10G20    29.66F
Wash National  LGT RAIN  60  58  92 NE21      29.76F FOG
Wash Dulles    FOG       59  56  89 NE14      29.77F VSB 1
Baltimore      LGT RAIN  58  58 100 NE17G25   29.78F FOG
Philadelphia   LGT RAIN  57  54  89 NE18G29   29.87F FOG
Newark         LGT RAIN  55  52  89 NE20      29.99F
Laguardia      CLOUDY    54  51  90 NE22      30.00F
J F K          LGT RAIN  57  54  89 NE21      29.99F
Boston         RAIN      46  45  96 NE18G26   30.24  FOG
Pittsburg      CLOUDY    65  54  67 E12       29.83F
Akron          PTSUNNY   69  54  58 SE15      29.82F
Cleveland      MOSUNNY   75  53  46 SE15G21   29.81F
Cincinnati     PTSUNNY   72  58  61 SW6       29.74F
Columbus       CLOUDY    73  55  53 SE8       29.74F
Detroit        MOSUNNY   68  53  58 E10       29.80F
Chicago O`Hare CLOUDY    75  48  38 S16       29.63F
Minneapolis    CLOUDY    56  45  66 SW9       29.57R
Indianapolis   PTSUNNY   73  55  53 VRB5      29.71F
Toronto Canada CLOUDY    48  46  93 E13G22    29.95S

$$




USA.gov is the U.S. government's official web portal to all federal, state and local government web resources and services.